#timestamp,LO_Frequency,Hit,StdDev 
1676386815.7,286047061.9,Y
1676386835.5,286047017.8,P
1676386855.4,286047021.3,N
1676386875.2,286047027.2,N
1676386895.1,286047030.5,Y
1676386896.0,286047030.5,P
1676386915.8,286047006.3,P
1676386935.6,286047012.8,N
1676386955.5,286047020.3,N
1676386975.3,286047023.4,N
1676386995.1,286047028.5,Y
1676387015.9,286047011.0,P
1676387035.7,286047010.8,N
1676387055.6,286047007.7,N
1676387075.4,286047001.6,N
1676387095.2,286047001.0,N
1676387115.1,286047001.1,N
1676387116.0,286047001.1,N
1676387135.8,286046998.2,N
1676387155.6,286046995.7,N
1676387175.5,286046993.2,N
1676387195.3,286046985.8,N
1676387215.2,286046981.0,N
1676387235.9,286046974.9,N
1676387285.8,286046957.2,E
1676387295.7,286046972.5,N
1676387315.5,286047001.2,P
1676387335.3,286047001.9,N
1676387355.2,286047002.5,N
1676387375.0,286047001.9,N
1676387375.9,286047001.9,N
1676387395.8,286047003.0,N
1676387415.6,286047005.6,N
1676387435.4,286047014.0,N
1676387455.3,286047024.7,N
1676387475.1,286047033.6,N
1676387495.8,286047039.6,N
1676387515.7,286047051.8,Y
1676387535.5,286047042.9,P
1676387555.4,286047050.4,N
1676387575.2,286047048.0,N
1676387595.0,286047049.5,N
1676387595.9,286047049.5,Y
1676387615.8,286047010.0,P
1676387635.6,286047005.6,N
1676387655.4,286047001.5,N
1676387675.3,286046999.7,N
1676387695.1,286047002.8,N
1676387715.9,286047002.1,N
1676387735.7,286047000.7,N
1676387755.6,286046989.8,N
1676387775.4,286046978.9,N
1676387795.2,286046970.5,N
1676387815.1,286046959.1,N
1676387816.0,286046959.1,N
1676387835.8,286046959.3,N
1676387855.6,286046948.2,N
1676387875.5,286046939.6,N
1676387895.3,286046932.9,N
1676387915.1,286046938.1,N
1676387935.9,286046940.9,N
1676387955.7,286046955.1,N
1676387975.6,286046959.9,N
1676387995.4,286046962.0,N
1676388015.2,286046966.1,N
1676388035.1,286046975.1,N
1676388036.0,286046975.1,N
1676388055.8,286046981.8,N
1676388075.6,286046983.0,N
1676388095.5,286046986.9,N
1676388115.3,286046994.9,N
1676388135.2,286046993.3,N
1676388155.9,286046994.0,N
1676388175.7,286046999.6,N
1676388195.6,286047007.6,N
1676388215.4,286047013.2,N
1676388235.2,286047016.7,N
1676388255.1,286047012.4,N
1676388256.0,286047012.4,N
1676388275.8,286046990.2,N
1676388295.7,286046975.0,N
1676388315.5,286046965.0,N
1676388335.3,286046965.6,N
1676388355.2,286046960.7,N
1676388375.0,286046965.6,N
1676388375.9,286046965.6,N
1676388395.7,286046968.1,N
1676388415.6,286046975.1,N
1676388435.4,286046980.1,N
1676388455.3,286046981.4,N
1676388475.1,286046985.7,N
1676388495.8,286046994.9,N
1676388515.7,286046996.6,N
1676388535.5,286047001.1,N
1676388555.4,286047000.9,N
1676388575.2,286046995.1,N
1676388595.0,286046994.7,N
1676388595.9,286046994.7,N
1676388615.8,286046993.5,N
1676388635.6,286046992.3,N
1676388655.4,286046991.3,N
1676388675.3,286046990.6,N
1676388695.1,286046979.7,N
1676388715.9,286046975.7,N
1676388735.7,286046979.1,N
1676388755.5,286046982.3,N
1676388775.4,286046991.2,N
1676388795.2,286046996.4,N
1676388815.0,286046989.4,N
1676388816.0,286046989.4,N
1676388835.8,286046979.4,N
1676388855.6,286046979.2,N
1676388875.5,286046989.9,N
1676388895.3,286046998.0,N
1676388915.1,286047006.6,N
1676388935.9,286047017.0,N
1676388955.7,286047019.1,N
1676388975.5,286047022.9,N
1676388995.4,286047026.2,N
1676389015.2,286047026.9,N
1676389035.1,286047027.0,N
1676389036.0,286047027.0,N
1676389055.8,286047033.0,N
1676389075.6,286047040.1,N
1676389095.5,286047046.2,N
1676389115.3,286047048.1,N
1676389135.1,286047052.6,N
1676389155.9,286047056.8,N
1676389175.7,286047057.3,N
1676389195.6,286047058.4,N
1676389215.4,286047056.1,N
1676389235.2,286047057.0,N
1676389255.1,286047055.0,N
1676389256.0,286047055.0,N
1676389275.8,286047049.8,N
1676389295.6,286047045.9,N
1676389315.5,286047045.0,N
1676389335.3,286047046.3,N
1676389355.2,286047049.8,N
1676389375.0,286047051.1,N
1676389375.9,286047051.1,N
1676389395.8,286047055.4,N
1676389415.6,286047055.6,N
1676389435.4,286047045.4,N
1676389455.3,286047030.3,N
1676389475.1,286047024.7,N
1676389495.8,286047017.5,N
1676389515.7,286047012.6,N
1676389535.5,286047013.8,N
1676389555.4,286047009.0,N
1676389575.2,286046998.7,N
1676389595.0,286046992.6,N
1676389595.9,286046992.6,N
1676389615.8,286046992.3,N
1676389635.6,286046983.8,N
1676389655.4,286046987.9,N
1676389675.3,286046992.5,N
1676389695.1,286046999.6,N
1676389715.9,286047007.9,N
1676389735.7,286047019.4,N
1676389755.5,286047027.1,N
1676389775.4,286047028.6,N
1676389795.2,286047027.8,N
1676389815.0,286047026.8,N
1676389815.9,286047026.8,N
1676389835.8,286047037.5,N
1676389855.6,286047017.5,N
1676389875.5,286047014.9,N
1676389895.3,286047008.0,N
1676389915.1,286047004.6,N
1676389935.9,286047003.0,N
1676389955.7,286047003.9,N
1676389975.5,286047005.4,N
1676389995.4,286047003.3,N
1676390015.2,286047002.9,N
1676390035.1,286047006.7,N
1676390036.0,286047006.7,N
1676390055.8,286047004.9,N
1676390075.6,286047009.9,N
1676390095.5,286047013.0,N
1676390115.3,286047014.5,N
1676390135.1,286047015.1,N
1676390155.9,286047011.8,N
1676390175.7,286047003.5,N
1676390195.6,286046998.1,N
1676390215.4,286046995.1,N
1676390235.2,286046993.4,N
1676390255.1,286046993.7,N
1676390256.0,286046993.7,N
1676390275.8,286046990.7,N
1676390295.6,286046978.3,N
1676390315.5,286046966.7,N
1676390335.3,286046958.4,N
1676390355.1,286046963.3,N
1676390375.9,286046968.5,N
1676390395.7,286046971.3,N
